星链-30871 (STARLINK-30871 )

导读

STARLINK-30871是美国太空探索技术公司(SpaceX)“星链”星座的成员,于2023年11月3日发射入轨。它延续星链低轨互联网星座的建设目标,为全球提供宽带互联网接入服务,丰富了星链星座的组网规模,支撑卫星互联网在通信覆盖、导航等多领域的应用能力。

Basic Information
目录编号:
58228
目录名称:
STARLINK-30871
国际标识:
2023-170Y
轨道中心:
EARTH
卫星名称:
星链-30871
卫星全名:
星链-30871 (STARLINK-30871 )
卫星状态:
在轨 (已飞行958 天)
发射日期:
2023-11-03 UTC
国别 :
美国 (US)
星等 :
--
Orbit Information
数据来源 国际轨道数据
星历时间: 2026-06-17T03:00:28+0800
1天前
查看轨道信息
半长轴: 6861.183km
偏心率: 0.0001131
轨道倾角: 43.001°
近地点辐角 247.750°
升交点赤经 354.723°
平近点角 112.323°
近地点: 482.27km
远地点: 483.822km
周期: 94.267分钟
每日圈数: 15.275813
Detailed Information
固有亮度:
5
最大亮度:
0.3
卫星平台:
Starlink v2.0 mini
覆盖范围:
全球
运营商:
太空探索技术公司
运营商所在国:
美国
制造商(研发单位):
太空探索技术公司
制造商所在国:
美国
使用方式:
暂无
Satellite Introduction
星链(Starlink)计划是由太空探索技术公司(SpaceX)提出的一个巨型低轨卫星互联网星座项目,计划在2019年至2024年间在太空搭建由约1.2万颗卫星组成的“星链”网络,其中1584颗将部署在地球上空550千米处的近地轨道,并从2020年开始工作。该卫星仍在工作。
2D Orbit Map
3D Orbit Map
Orbit Altitude Analysis Chart
Orbit Inclination Analysis Chart
Orbit Comprehensive Analysis Chart
View Comprehensive Chart